EW4423 Weather Reports


time (UTC)temp
C
wind
direction
speed
KPH
gust
KPH
rain 1hr
cm
rain 24hr
cm
rain mn
cm
humidity
%
barometer
mb
20260502140106 14 49 0.0 6.4 0.00 0.00 0.00 88 1020.8
20260502123033 10 14 1.6 6.4 0.00 0.00 0.00 90 1019.6
20260502121528 9 342 1.6 4.8 0.00 0.00 0.00 89 1019.8
20260502114523 10 344 1.6 4.8 0.00 0.00 0.00 88 1019.2
20260502113027 10 348 1.6 4.8 0.00 0.00 0.00 88 1018.7
20260502111517 10 340 1.6 4.8 0.00 0.00 0.00 88 1018.6
20260502110016 10 283 1.6 4.8 0.00 0.00 0.00 88 1018.4
20260502104515 10 281 1.6 4.8 0.00 0.00 0.00 88 1018.3
20260502103014 10 282 1.6 4.8 0.00 0.00 0.00 88 1018.3
20260502101512 10 278 1.6 6.4 0.00 0.00 0.00 87 1018.4
20260502091505 11 336 0.0 1.6 0.00 0.00 0.00 87 1017.8
20260502070107 12 343 0.0 4.8 0.00 0.00 0.00 87 1018.0
20260502064605 12 348 1.6 6.4 0.00 0.00 0.00 87 1018.2
20260502063054 12 325 1.6 6.4 0.00 0.00 0.00 87 1018.1
20260502061550 12 331 1.6 6.4 0.00 0.00 0.00 87 1018.1
20260502060049 12 360 0.0 4.8 0.00 0.00 0.00 87 1017.9
20260502054554 12 360 0.0 6.4 0.00 0.00 0.00 87 1018.0
20260502053047 12 5 3.2 6.4 0.00 0.00 0.00 87 1018.0
20260502051546 12 355 1.6 4.8 0.00 0.00 0.00 87 1018.0
20260502050043 12 348 1.6 4.8 0.00 0.00 0.00 87 1018.1
20260502044542 12 348 0.0 4.8 0.00 0.00 0.00 87 1018.1
20260502043045 12 348 0.0 3.2 0.00 0.00 0.00 86 1018.0
20260502041553 12 348 1.6 6.4 0.00 0.00 0.00 87 1017.9
20260502040042 12 349 3.2 6.4 0.00 0.00 0.00 86 1018.0
20260502034539 12 355 3.2 8.0 0.00 0.00 0.00 86 1017.9
20260502033039 12 309 0.0 6.4 0.00 0.00 0.00 85 1017.7
20260502031535 13 5 0.0 3.2 0.00 0.00 0.00 85 1017.5
20260502030037 13 360 0.0 4.8 0.00 0.00 0.00 85 1017.5
20260502024534 13 355 1.6 4.8 0.00 0.00 0.00 85 1017.3
20260502023044 13 319 3.2 6.4 0.00 0.00 0.00 85 1017.4
20260502021534 13 94 0.0 3.2 0.00 0.00 0.00 84 1017.1
20260502020033 13 94 1.6 4.8 0.00 0.00 0.00 82 1017.0
20260502014535 13 94 0.0 3.2 0.00 0.00 0.00 82 1017.1
20260502013032 14 93 0.0 0.0 0.00 0.00 0.00 80 1016.9
20260502011531 14 94 0.0 4.8 0.00 0.00 0.00 80 1016.4
20260502010035 15 94 0.0 3.2 0.00 0.00 0.00 79 1016.1
20260502004532 15 94 0.0 3.2 0.00 0.00 0.00 79 1016.2
20260502003029 15 93 0.0 9.7 0.00 0.00 0.00 78 1016.0
20260502001532 15 72 6.4 12.9 0.00 0.00 0.00 77 1015.3
20260502000050 15 99 3.2 14.5 0.00 0.00 0.00 77 1015.4
20260501234532 15 94 8.0 12.9 0.00 0.00 0.00 77 1015.4
20260501233028 15 103 6.4 19.3 0.00 0.00 0.00 77 1015.3
20260501231526 15 86 9.7 17.7 0.00 0.00 0.00 77 1015.0
20260501230026 15 92 8.0 12.9 0.00 0.00 0.00 77 1015.4
20260501224534 15 76 8.0 14.5 0.00 0.00 0.00 76 1015.3
20260501223025 15 75 14.5 22.5 0.00 0.00 0.00 75 1014.4
20260501221524 15 55 12.9 19.3 0.00 0.00 0.00 76 1014.9
20260501220030 15 40 12.9 19.3 0.00 0.00 0.00 76 1014.3
20260501214524 15 82 8.0 24.1 0.00 0.00 0.00 76 1013.8
20260501213022 15 44 12.9 20.9 0.00 0.00 0.00 75 1014.2
20260501211523 15 52 11.3 22.5 0.00 0.00 0.00 76 1014.5
20260501210023 15 65 16.1 25.7 0.00 0.00 0.00 76 1014.9
20260501204523 16 63 12.9 22.5 0.00 0.00 0.00 76 1015.0
20260501203020 16 65 4.8 16.1 0.00 0.00 0.00 78 1015.5
20260501201524 16 36 12.9 24.1 0.00 0.00 0.00 77 1015.0
20260501200032 16 71 22.5 35.4 0.00 0.00 0.00 76 1014.3
20260501194518 16 44 14.5 29.0 0.00 0.00 0.00 79 1014.0
20260501193112 15 53 20.9 30.6 0.00 0.00 0.00 79 1014.2
20260501191513 15 83 27.4 40.2 0.00 0.00 0.00 78 1014.5
20260501190009 15 78 19.3 30.6 0.00 0.00 0.00 81 1014.8
20260501184507 15 68 19.3 30.6 0.00 0.00 0.00 83 1015.0
20260501183016 15 83 19.3 27.4 0.00 0.00 0.00 84 1015.5
20260501181505 15 63 19.3 27.4 0.00 0.00 0.00 84 1016.0
20260501180006 14 83 16.1 30.6 0.00 0.00 0.00 85 1016.6
20260501174506 14 73 14.5 25.7 0.00 0.00 0.00 87 1016.3
20260501173003 13 70 17.7 20.9 0.00 0.00 0.00 88 1016.4
20260501171501 13 73 11.3 17.7 0.00 0.00 0.00 88 1017.0
20260501170114 13 75 9.7 20.9 0.00 0.00 0.00 88 1017.2
20260501164634 13 65 6.4 14.5 0.00 0.00 0.00 89 1017.0
20260501163058 12 86 9.7 20.9 0.00 0.00 0.00 88 1016.9
20260501161601 12 85 14.5 20.9 0.00 0.00 0.00 88 1017.3
20260501160059 12 73 11.3 20.9 0.00 0.00 0.00 88 1017.4
20260501154603 12 65 11.3 17.7 0.00 0.00 0.00 88 1017.6
20260501153051 12 72 11.3 19.3 0.00 0.00 0.00 88 1017.4
20260501151552 12 67 9.7 17.7 0.00 0.00 0.00 88 1017.1
20260501150048 12 85 8.0 16.1 0.00 0.00 0.00 87 1017.2
20260501144606 12 66 12.9 20.9 0.00 0.00 0.00 87 1016.8
20260501143046 12 34 8.0 19.3 0.00 0.00 0.00 86 1016.8